Lyndonville, VT

1:48 PM EDT on June 22, 2017 (GMT -0400)
Lyndonville

Weather History for KCDA - March, 2014

Change the Weather History Date:

Sunday, March 30, 2014

  Actual Average (K1V4) Record (K1V4)
Temperature  
Mean Temperature 36 °F -  
Max Temperature 38 °F 41 °F 79 °F (1998)
Min Temperature 31 °F 24 °F 5 °F (1915)
Degree Days  
Heating Degree Days 30    
Moisture  
Dew Point 31 °F    
Average Humidity 82    
Maximum Humidity 89    
Minimum Humidity 72    
Precipitation  
Precipitation 0.00 in - - ()
Sea Level Pressure  
Sea Level Pressure 29.84 in    
Wind  
Wind Speed 9 mph (NNE)    
Max Wind Speed 16 mph    
Max Gust Speed 21 mph    
Visibility 8 miles    
Events Rain    
Averages and records for this station are not official NWS values.
T = Trace of Precipitation, MM = Missing Value Source: NWS Daily Summary

Daily Weather History Graph

Daily Weather History Graph

Search for Another Location

Airport or City:

Trip Planner

Search our weather history database for the weather conditions in past years. The results will help you decide how hot, cold, wet, or windy it might be!

Date:

Astronomy

Mar. 30, 2014 Rise Set
Actual Time 6:32 AM EDT 7:13 PM EDT
Civil Twilight 6:03 AM EDT 7:42 PM EDT
Nautical Twilight 5:28 AM EDT 8:17 PM EDT
Astronomical Twilight 4:52 AM EDT 8:53 PM EDT
Moon 6:16 AM EDT (3/30) 7:23 PM EDT (3/30)
Length of Visible Light 13h 38m
Length of Day
12h 40m
Waning Crescent, 0% of the Moon is Illuminated
Mar 30
Waning Crescent
Mar 30
New
Apr 7
First Quarter
Apr 15
Full
Apr 22
Last Quarter

Hourly Weather History & Observations

Time (EDT) Temp. Windchill Dew Point Humidity Pressure Visibility Wind Dir Wind Speed Gust Speed Precip Events Conditions
12:15 AM 39.6 °F 33.0 °F 31.1 °F 72% 30.03 in 10.0 mi ENE 10.4 mph - N/A   Light Drizzle
12:35 AM 38.7 °F - 32.0 °F 77% 30.02 in 10.0 mi Calm Calm - N/A Rain Light Rain
12:55 AM 38.5 °F 33.4 °F 32.9 °F 80% 30.01 in 10.0 mi NE 6.9 mph - N/A Rain Light Rain
1:15 AM 37.8 °F 31.8 °F 33.1 °F 83% 30.01 in 10.0 mi NE 8.1 mph - N/A Rain Light Rain
1:35 AM 37.6 °F 30.5 °F 32.9 °F 83% 29.99 in 7.0 mi ENE 10.4 mph - N/A Rain Rain
2:15 AM 37.0 °F 30.4 °F 32.5 °F 84% 29.97 in 10.0 mi NE 9.2 mph - N/A Rain Light Rain
2:35 AM 36.7 °F 28.9 °F 32.5 °F 85% 29.95 in 5.0 mi NE 11.5 mph 17.3 mph N/A Rain Rain
2:55 AM 36.0 °F 29.6 °F 32.0 °F 86% 29.95 in 5.0 mi ENE 8.1 mph - N/A Rain Rain
3:15 AM 35.6 °F 27.5 °F 32.0 °F 87% 29.94 in 4.0 mi NE 11.5 mph 17.3 mph N/A Rain Rain
3:35 AM 35.2 °F 27.6 °F 31.6 °F 87% 29.93 in 5.0 mi NE 10.4 mph 16.1 mph N/A Rain Rain
3:55 AM 35.1 °F 29.3 °F 31.6 °F 87% 29.93 in 10.0 mi NE 6.9 mph - N/A Rain Light Rain
4:15 AM 35.1 °F 28.6 °F 31.3 °F 86% 29.91 in 10.0 mi ENE 8.1 mph - N/A Rain Light Rain
4:35 AM 35.1 °F 28.6 °F 31.3 °F 86% 29.91 in 7.0 mi NE 8.1 mph 16.1 mph N/A Rain Light Rain
4:55 AM 35.1 °F 26.4 °F 31.5 °F 87% 29.89 in 7.0 mi NE 12.7 mph 17.3 mph N/A Rain Light Rain
5:15 AM 34.7 °F 26.9 °F 31.6 °F 89% 29.85 in 4.0 mi North 10.4 mph 18.4 mph N/A Rain Heavy Rain
5:35 AM 35.2 °F 28.1 °F 31.8 °F 87% 29.85 in 7.0 mi NNE 9.2 mph 17.3 mph N/A Rain Light Rain
5:55 AM 36.0 °F 29.6 °F 32.0 °F 86% 29.83 in 5.0 mi NE 8.1 mph - N/A Rain Light Rain
6:15 AM 36.5 °F 30.3 °F 32.0 °F 84% 29.82 in 7.0 mi NNE 8.1 mph 20.7 mph N/A   Drizzle
6:35 AM 36.5 °F 27.8 °F 32.0 °F 84% 29.80 in 10.0 mi NNE 13.8 mph 18.4 mph N/A Rain Light Rain
6:55 AM 36.9 °F 29.6 °F 32.0 °F 83% 29.80 in 10.0 mi NE 10.4 mph 18.4 mph N/A   Overcast
7:15 AM 36.9 °F 29.6 °F 31.8 °F 82% 29.79 in 10.0 mi NE 10.4 mph 18.4 mph N/A   Overcast
7:35 AM 36.9 °F 29.1 °F 32.0 °F 83% 29.80 in 10.0 mi NE 11.5 mph - N/A   Overcast
7:55 AM 36.9 °F 30.1 °F 32.0 °F 83% 29.81 in 7.0 mi NE 9.2 mph 16.1 mph N/A   Overcast
8:15 AM 36.7 °F 29.4 °F 32.0 °F 83% 29.81 in 5.0 mi NE 10.4 mph - N/A   Haze
8:35 AM 36.7 °F 28.9 °F 32.0 °F 83% 29.81 in 10.0 mi NE 11.5 mph 17.3 mph N/A   Overcast
8:55 AM 36.9 °F 28.7 °F 31.5 °F 81% 29.81 in 10.0 mi NE 12.7 mph - N/A   Overcast
9:15 AM 36.9 °F 29.6 °F 31.1 °F 80% 29.80 in 10.0 mi NNE 10.4 mph 18.4 mph N/A   Overcast
9:35 AM 36.9 °F 30.1 °F 31.1 °F 80% 29.80 in 10.0 mi NE 9.2 mph - N/A   Drizzle
9:55 AM 36.5 °F 29.7 °F 31.8 °F 83% 29.80 in 7.0 mi NNE 9.2 mph - N/A Rain Light Rain
10:15 AM 36.5 °F 29.7 °F 32.0 °F 84% 29.80 in 7.0 mi NE 9.2 mph - N/A   Overcast
10:35 AM 36.3 °F 29.5 °F 31.8 °F 84% 29.80 in 7.0 mi NNE 9.2 mph - N/A   Overcast
10:55 AM 36.3 °F 30.1 °F 32.0 °F 84% 29.81 in 4.0 mi NNE 8.1 mph - N/A Rain Light Rain
11:15 AM 36.7 °F 32.0 °F 32.5 °F 85% 29.82 in 10.0 mi NNE 5.8 mph - N/A   Overcast
11:35 AM 36.1 °F 28.7 °F 32.4 °F 86% 29.81 in 4.0 mi North 10.4 mph - N/A   Overcast
11:55 AM 36.0 °F 27.5 °F 32.2 °F 86% 29.80 in 3.0 mi NNE 12.7 mph - N/A   Overcast
12:15 PM 36.1 °F 29.9 °F 32.4 °F 86% 29.81 in 4.0 mi NNE 8.1 mph - N/A   Overcast
12:35 PM 36.0 °F 28.5 °F 32.0 °F 86% 29.81 in 7.0 mi North 10.4 mph - N/A Rain Light Rain
12:55 PM 36.0 °F 28.5 °F 32.0 °F 86% 29.80 in 4.0 mi North 10.4 mph - N/A Rain Rain
1:15 PM 35.8 °F 28.3 °F 32.0 °F 86% 29.81 in 7.0 mi North 10.4 mph - N/A   Overcast
1:35 PM 36.0 °F 29.6 °F 32.0 °F 86% 29.81 in 5.0 mi NNE 8.1 mph - N/A Rain Light Rain
1:55 PM 36.1 °F 28.7 °F 32.0 °F 85% 29.81 in 7.0 mi North 10.4 mph - N/A Rain Light Rain
2:15 PM 36.5 °F 29.2 °F 32.4 °F 85% 29.81 in 3.0 mi NNE 10.4 mph - N/A Rain Light Rain
2:35 PM 36.9 °F 30.7 °F 32.5 °F 84% 29.81 in 7.0 mi NE 8.1 mph - N/A   Drizzle
2:55 PM 36.9 °F 31.4 °F 32.9 °F 86% 29.80 in 5.0 mi NNE 6.9 mph - N/A   Light Drizzle
3:15 PM 37.0 °F 30.4 °F 32.4 °F 83% 29.79 in 7.0 mi NNE 9.2 mph - N/A Rain Light Rain
3:35 PM 37.4 °F 31.4 °F 32.0 °F 81% 29.79 in 7.0 mi North 8.1 mph - N/A   Overcast
3:55 PM 36.9 °F 29.6 °F 32.0 °F 83% 29.79 in 10.0 mi North 10.4 mph 18.4 mph N/A   Overcast
4:15 PM 36.9 °F 30.1 °F 31.8 °F 82% 29.79 in 10.0 mi North 9.2 mph 17.3 mph N/A   Light Drizzle
4:35 PM 36.9 °F 28.2 °F 31.6 °F 81% 29.79 in 10.0 mi North 13.8 mph 17.3 mph N/A   Overcast
4:55 PM 36.9 °F 28.2 °F 31.1 °F 80% 29.78 in 10.0 mi North 13.8 mph - N/A   Overcast
5:15 PM 36.9 °F 28.2 °F 31.1 °F 80% 29.78 in 10.0 mi North 13.8 mph - N/A   Overcast
5:35 PM 36.9 °F 27.8 °F 30.7 °F 79% 29.79 in 10.0 mi North 15.0 mph - N/A   Overcast
5:55 PM 36.9 °F 28.7 °F 30.4 °F 77% 29.79 in 10.0 mi North 12.7 mph - N/A   Overcast
6:15 PM 36.1 °F 28.2 °F 30.2 °F 79% 29.79 in 10.0 mi North 11.5 mph 17.3 mph N/A   Overcast
6:35 PM 36.0 °F 29.0 °F 30.2 °F 80% 29.80 in 10.0 mi North 9.2 mph - N/A   Overcast
6:55 PM 35.6 °F 28.0 °F 30.0 °F 80% 29.80 in 10.0 mi North 10.4 mph - N/A   Overcast
7:15 PM 35.1 °F 26.4 °F 29.3 °F 80% 29.80 in 10.0 mi North 12.7 mph 19.6 mph N/A   Overcast
7:35 PM 35.1 °F 27.4 °F 29.3 °F 80% 29.81 in 10.0 mi NNW 10.4 mph - N/A   Overcast
7:55 PM 34.9 °F 27.1 °F 28.9 °F 79% 29.82 in 10.0 mi North 10.4 mph - N/A   Overcast
8:15 PM 34.3 °F 27.0 °F 28.4 °F 79% 29.82 in 10.0 mi North 9.2 mph - N/A   Overcast
8:35 PM 34.0 °F 26.6 °F 28.0 °F 79% 29.83 in 10.0 mi North 9.2 mph - N/A   Overcast
8:55 PM 33.8 °F 25.3 °F 28.0 °F 79% 29.83 in 10.0 mi North 11.5 mph 17.3 mph N/A Rain Light Rain
9:15 PM 33.8 °F 27.0 °F 27.5 °F 78% 29.82 in 10.0 mi North 8.1 mph 17.3 mph N/A Rain Light Rain
9:35 PM 33.3 °F 25.1 °F 27.1 °F 78% 29.82 in 10.0 mi North 10.4 mph 16.1 mph N/A   Overcast
9:55 PM 33.3 °F 25.1 °F 26.8 °F 77% 29.82 in 10.0 mi NNW 10.4 mph 17.3 mph N/A   Overcast
10:15 PM 32.9 °F 25.3 °F 26.8 °F 78% 29.84 in 10.0 mi North 9.2 mph - N/A   Overcast
10:35 PM 32.5 °F 23.2 °F 26.6 °F 79% 29.85 in 10.0 mi North 12.7 mph - N/A   Overcast
10:55 PM 32.4 °F 23.0 °F 26.6 °F 79% 29.84 in 10.0 mi NNW 12.7 mph 17.3 mph N/A   Overcast
11:15 PM 32.0 °F 21.2 °F 26.4 °F 80% 29.85 in 10.0 mi North 16.1 mph 20.7 mph N/A   Overcast
11:35 PM 32.0 °F 23.6 °F 25.9 °F 78% 29.86 in 10.0 mi NNW 10.4 mph 16.1 mph N/A   Overcast
11:55 PM 31.6 °F 21.6 °F 25.7 °F 79% 29.87 in 10.0 mi NNW 13.8 mph 18.4 mph N/A   Overcast